Temp
35 34 34 36 37 38 39 39 39 40 39 40 37 29 27 32 37 38 37 37 36 36 36 35 34 33 32 31 30 29 29 29 27 27 26 26 25 25 27 27 27 25 25 25
35 34 36 38 38 38 38 39 40 41 38 39 39 35 33 37 38 39 38 37 37 36 36 35 34 33 32 31 30 29 28 28 28 27 27 26 26 26 27 27 27 26 25 25
35 36 38 38 38 37 38 38 39 40 40 40 40 39 39 39 39 39 39 39 38 37 36 35 34 33 33 31 30 29 28 27 27 27 27 26 26 27 28 27 27 26 25 25
36 38 37 37 37 38 37 40 40 40 39 37 39 37 38 39 38 38 39 39 39 38 37 37 35 34 33 32 30 28 27 27 26 27 26 27 27 28 29 28 28 26 26 25
35 37 37 37 38 39 38 40 40 40 39 38 36 36 38 38 38 39 39 39 40 39 38 38 36 34 33 33 31 29 27 27 26 26 26 27 28 28 28 29 28 26 26 26
37 39 39 39 39 39 40 39 40 40 40 36 38 36 37 38 35 38 40 40 40 40 39 38 38 35 34 33 32 30 27 27 26 26 26 27 27 28 29 29 27 27 25 25
36 37 39 39 38 39 39 38 37 36 37 37 40 37 37 39 39 40 38 36 41 41 40 38 38 37 34 33 33 31 28 27 26 26 25 27 26 27 28 28 27 27 26 25
34 34 37 39 38 38 38 38 37 34 36 37 40 39 39 39 40 38 36 36 42 41 40 39 37 37 35 34 33 32 29 27 26 26 26 25 27 26 27 27 28 28 28 27
36 35 39 39 39 39 38 37 39 38 38 38 40 40 42 41 40 39 39 41 42 41 41 40 39 38 37 34 33 32 29 27 27 26 26 26 26 26 26 27 27 27 28 28
36 35 38 39 39 39 38 39 37 37 35 35 39 38 39 39 35 37 40 41 42 42 41 41 40 38 37 35 33 32 31 28 27 27 26 26 25 25 26 27 27 27 27 28
37 37 37 39 37 37 37 37 38 38 38 37 37 39 42 41 39 40 40 41 42 43 42 41 40 39 37 36 34 32 31 29 27 27 26 26 26 25 25 26 27 27 27 27
37 36 35 37 39 39 38 37 37 36 35 38 38 39 43 42 41 41 41 42 42 42 43 42 41 39 37 36 35 33 32 31 28 27 27 26 26 26 25 25 27 27 26 27
38 35 34 35 38 39 38 38 38 38 38 36 37 38 41 41 39 39 41 41 40 40 41 42 41 39 37 36 35 34 32 31 30 28 27 27 26 26 26 25 26 26 26 26
36 37 34 35 35 37 37 37 38 38 36 37 38 38 39 40 39 39 40 41 42 41 41 41 41 39 38 36 35 34 33 32 31 29 28 28 27 26 26 26 25 26 25 25
36 34 36 36 36 38 37 37 37 36 37 36 38 38 39 40 39 40 40 41 41 40 40 38 40 40 37 36 34 34 34 33 32 31 29 28 28 27 26 26 26 25 25 24
35 32 34 35 36 36 36 38 38 37 37 37 38 38 40 41 41 40 37 39 39 39 40 39 37 37 37 36 34 34 34 33 33 32 30 29 28 27 27 26 26 26 25 24
33 33 32 32 35 36 35 36 37 38 38 37 36 37 39 39 39 39 38 39 39 39 39 39 38 36 35 37 35 34 34 34 33 32 31 30 29 28 27 26 26 26 25 23
32 31 32 32 33 31 35 38 38 38 38 38 38 38 38 38 38 39 38 38 37 40 40 40 41 38 37 38 37 35 34 33 32 32 31 31 29 28 27 26 26 25 25 24
34 32 31 31 32 33 35 36 37 36 36 38 38 38 39 39 39 38 39 39 39 38 39 39 41 41 38 37 37 35 33 33 33 31 31 31 29 28 27 26 25 25 24 23
33 32 32 31 31 31 34 37 37 36 33 37 36 36 36 36 35 37 38 39 39 39 39 39 40 40 40 37 37 34 33 32 32 31 31 30 29 28 26 26 25 24 23 22
29 30 30 30 30 32 33 35 35 31 32 33 33 34 34 34 35 34 36 36 39 38 38 39 39 38 37 36 36 32 32 31 31 31 30 29 28 27 26 25 24 23 22 22
27 28 29 30 30 29 34 33 30 32 32 32 32 33 33 34 34 35 35 36 36 36 38 37 37 37 36 35 33 31 31 30 30 29 28 28 27 26 25 24 23 22 22 21
27 29 29 30 31 28 30 30 31 32 31 31 32 33 34 34 34 36 35 35 35 35 35 37 36 32 33 32 31 30 29 29 29 28 27 27 26 25 24 23 22 21 21 20
28 29 28 28 30 30 30 30 31 31 31 32 32 32 34 34 34 33 33 33 34 33 32 32 31 29 29 29 29 28 28 28 28 27 25 24 23 22 21 21 20 20 19 19
19 20 27 29 29 27 29 29 30 30 29 27 26 26 26 27 28 29 30 29 30 30 30 28 28 28 27 27 27 26 27 26 24 22 22 22 21 21 20 19 20 19 19 20
17 19 20 22 20 23 26 28 29 27 27 28 27 26 25 23 21 22 25 27 28 27 27 26 26 25 25 25 25 25 24 23 22 21 21 21 20 20 18 18 18 18 19 20
Height
701 718 721 711 708 705 701 701 704 687 691 700 712 748 752 729 718 719 723 729 734 739 743 749 757 763 770 776 782 787 793 797 801 804 809 813 816 818 819 821 821 825 827 828
706 716 698 693 697 704 702 703 697 679 690 699 702 722 717 710 706 708 714 722 726 731 736 743 750 757 764 770 776 782 788 792 796 801 805 810 811 812 813 816 819 821 823 825
704 694 684 690 696 705 702 703 695 693 682 683 694 712 702 693 696 697 700 705 714 722 729 735 743 751 757 763 769 776 783 789 793 799 803 806 809 810 811 812 816 817 819 823
689 675 682 690 694 691 709 681 683 688 693 723 693 733 707 701 699 698 696 698 703 711 718 724 733 743 750 757 764 771 778 784 790 795 799 801 804 806 808 811 812 813 817 820
686 680 678 686 684 675 689 673 680 682 692 698 716 731 709 692 703 695 691 691 692 696 705 714 722 733 743 751 758 765 772 779 785 790 794 798 800 803 805 807 809 812 814 817
669 650 660 663 664 666 667 679 678 678 686 723 706 723 714 699 701 693 677 680 682 685 691 701 711 722 732 741 749 757 764 772 778 785 790 793 796 799 802 804 804 808 810 815
670 665 648 649 669 663 672 690 717 723 713 717 682 705 697 674 672 671 681 689 672 675 680 690 700 709 720 729 739 747 755 763 771 778 784 788 792 795 797 800 801 805 808 812
687 690 660 644 660 671 675 679 702 738 722 710 672 693 677 658 659 664 670 674 656 665 671 681 690 699 709 719 728 738 746 755 763 770 777 782 787 791 792 796 798 801 804 806
671 673 636 640 641 652 668 683 664 691 681 693 673 661 644 643 654 656 666 654 653 656 661 669 679 689 699 710 719 727 737 747 755 763 770 776 780 783 787 791 794 797 800 801
647 670 636 634 638 638 650 649 688 681 717 714 683 677 673 657 666 679 654 656 649 647 650 659 670 681 691 702 712 721 730 737 747 755 761 768 772 776 782 786 788 792 795 798
638 648 648 630 641 654 660 667 661 664 673 692 702 675 628 637 643 648 646 643 646 643 642 649 658 670 682 695 705 714 723 732 739 747 754 760 765 769 775 778 781 784 789 792
622 643 657 640 618 621 635 650 656 679 684 666 670 661 611 619 621 627 631 632 631 632 634 638 646 659 672 682 695 705 716 724 731 738 746 752 757 762 766 771 774 778 781 786
612 636 663 656 629 615 632 635 639 647 652 668 680 666 614 616 635 632 630 628 629 630 631 632 638 650 662 674 684 695 705 714 723 731 738 743 748 753 757 761 767 771 774 778
597 617 636 644 638 625 637 632 632 641 663 658 653 653 631 630 633 633 625 625 623 624 629 631 637 642 654 663 672 682 693 703 713 722 728 733 738 742 747 754 759 764 767 772
599 627 615 619 618 615 619 625 631 642 639 655 640 641 632 620 625 623 621 622 625 626 628 633 636 640 646 654 663 673 682 692 702 711 718 722 728 735 742 747 752 756 760 763
595 626 620 621 612 614 621 613 614 619 626 629 631 635 609 606 605 613 625 627 626 626 624 629 633 637 642 649 655 663 672 681 691 700 706 714 721 727 732 739 745 750 754 757
604 613 629 637 615 617 633 611 609 611 612 622 642 622 609 613 614 615 615 613 618 616 618 621 626 632 637 640 648 657 664 674 682 690 698 705 711 717 724 732 738 742 747 751
601 615 622 632 626 658 602 588 595 603 602 601 607 609 608 609 606 606 607 613 615 606 610 612 616 623 631 635 641 651 660 668 674 682 690 697 703 710 717 725 731 736 741 746
581 603 626 635 635 620 609 597 601 610 612 594 601 599 598 598 600 603 597 599 605 609 607 606 610 614 623 629 634 643 653 660 667 673 680 688 696 704 713 719 725 731 738 744
584 591 614 625 636 639 606 589 581 592 633 596 598 602 602 603 627 612 593 590 595 598 601 602 605 608 613 620 628 636 645 654 660 666 673 682 691 700 708 715 723 729 735 740
609 603 618 621 628 617 593 584 586 639 630 606 605 606 607 616 609 603 597 596 586 591 593 597 600 602 607 611 621 630 641 648 657 667 673 680 688 697 705 713 718 724 731 737
619 623 621 616 630 640 582 595 624 611 603 603 605 604 606 602 598 598 597 593 591 591 586 592 596 601 606 611 618 628 638 647 657 665 673 680 688 696 703 709 717 721 729 735
626 613 617 610 612 600 607 600 598 600 609 606 605 600 599 601 598 590 591 591 593 596 596 596 599 604 612 617 622 631 641 649 657 665 672 681 689 697 703 709 711 721 728 734
610 604 611 613 601 596 595 599 599 606 606 603 600 600 595 598 596 597 598 598 600 601 602 608 608 613 623 626 631 638 645 654 662 668 673 681 689 697 704 709 718 720 727 733
654 646 610 603 602 612 609 607 608 604 609 616 617 618 618 616 619 615 615 613 610 611 613 618 622 625 633 637 641 647 649 658 665 677 679 685 693 701 707 713 719 722 726 730
663 655 646 632 630 628 615 610 611 615 615 617 622 627 633 635 638 639 632 625 624 621 624 629 631 638 646 649 652 655 659 664 669 679 685 691 697 704 711 715 720 724 727 729
Wind_Speed
20 15 21 25 25 23 23 20 24 12 7 17 18 19 21 27 23 19 20 18 20 20 20 25 26 27 26 27 25 27 24 24 21 19 19 14 10 14 20 16 13 10 13 8
19 24 25 23 26 26 27 27 24 15 24 24 17 27 29 28 20 19 20 19 19 19 19 20 27 26 28 27 30 29 28 23 25 20 19 19 24 23 23 22 16 13 9 10
24 23 24 25 25 27 28 27 22 16 20 22 18 19 21 22 20 19 19 21 20 19 20 21 21 27 28 30 30 31 30 25 26 21 22 23 17 10 3 18 18 16 15 11
24 25 26 26 29 28 26 26 26 22 17 12 16 13 12 16 22 21 20 19 23 22 21 20 21 27 27 29 30 31 31 30 26 30 21 21 17 12 10 10 16 20 11 11
24 24 27 27 30 30 26 26 26 25 21 16 22 8 15 21 18 24 22 21 20 23 22 22 23 30 31 29 32 31 33 31 29 28 25 21 17 20 17 17 16 16 14 11
24 22 27 25 25 27 25 24 25 22 19 15 20 14 21 20 24 22 22 22 22 21 23 22 26 33 34 32 33 35 35 34 32 30 31 26 22 23 15 12 15 13 13 16
25 27 25 25 24 26 28 25 15 18 17 17 22 23 15 18 23 21 10 18 22 21 20 21 22 22 33 35 35 35 37 35 34 31 30 33 25 25 23 12 18 17 18 21
22 21 28 21 28 24 25 25 16 20 17 19 23 21 15 24 19 14 22 35 25 23 19 21 22 20 32 36 36 35 38 37 36 35 30 31 33 21 24 21 17 20 19 22
21 24 21 31 23 26 27 25 26 26 23 17 18 23 23 18 19 24 25 10 13 25 22 22 22 25 28 35 37 38 36 38 37 36 35 31 32 31 25 22 25 19 20 14
26 19 24 25 26 28 29 19 24 20 26 25 21 21 12 19 20 22 18 22 15 19 21 21 19 22 29 32 36 36 36 39 38 37 36 35 33 34 31 29 27 29 19 19
29 23 20 25 28 27 20 23 24 22 20 17 17 16 16 16 24 22 20 20 21 15 17 21 21 25 30 30 33 35 36 34 37 38 36 34 35 34 35 31 31 31 29 26
27 19 20 26 26 29 28 28 28 17 22 18 18 16 13 14 14 20 16 15 15 13 15 17 21 20 29 32 34 36 35 36 38 38 36 37 35 35 34 36 31 32 33 28
22 23 17 23 24 25 31 28 26 26 22 20 18 17 19 8 12 18 14 16 17 16 11 10 18 21 22 31 34 36 38 39 37 37 37 36 37 37 37 36 37 33 34 34
25 23 26 19 21 18 24 29 28 26 18 21 20 20 25 12 20 16 12 14 8 5 6 7 5 17 23 33 36 38 40 39 39 38 37 38 39 39 39 36 36 35 35 33
16 17 22 28 30 26 27 29 28 26 26 22 22 21 23 24 12 16 8 6 6 6 9 9 7 5 17 25 34 37 38 41 39 39 39 39 39 37 35 34 34 35 33 35
19 16 18 25 28 29 27 27 28 30 29 28 24 24 19 17 18 13 18 19 12 11 8 11 12 9 6 17 30 37 36 40 38 39 39 38 37 36 36 34 33 33 33 32
20 16 16 20 25 24 26 28 24 24 25 22 20 22 15 16 15 12 7 8 14 16 12 12 13 12 10 13 29 33 38 35 38 34 37 38 37 37 36 33 33 31 33 29
20 19 14 15 17 23 17 20 25 22 18 24 23 18 17 18 17 17 14 12 10 9 12 8 8 12 17 19 27 29 34 34 34 34 33 35 35 34 34 32 32 31 28 29
17 16 14 14 17 17 21 20 18 17 22 19 18 16 17 18 19 20 18 17 13 14 11 11 13 19 21 23 25 30 29 34 31 32 29 33 32 31 31 30 30 26 25 23
23 14 15 16 20 25 17 21 9 4 9 7 8 6 8 10 8 8 16 17 16 15 12 9 17 19 21 27 28 29 28 29 31 30 32 28 27 30 29 27 23 21 20 20
10 11 15 14 14 18 1 13 8 11 6 5 6 6 7 9 9 12 17 18 14 12 15 17 6 5 19 29 29 27 27 26 28 25 26 26 28 26 25 23 22 21 20 17
9 8 12 12 15 12 16 10 5 1 4 4 4 5 8 10 13 13 14 14 5 8 7 6 4 1 17 25 26 25 22 24 25 25 25 24 25 23 22 22 19 21 19 15
14 13 10 8 8 13 1 11 9 6 4 3 2 6 6 11 15 14 3 6 3 4 7 4 5 12 12 12 22 20 20 26 25 26 25 23 21 18 21 20 22 20 16 15
13 12 15 9 2 11 13 11 10 7 7 12 13 12 11 5 7 12 8 3 5 7 10 13 14 14 11 16 18 20 25 24 24 24 25 24 23 22 22 18 18 19 16 14
5 16 11 17 13 12 10 10 9 13 16 16 19 19 21 20 20 14 11 12 10 10 13 17 14 12 15 19 20 20 25 26 25 20 22 22 23 21 19 16 15 14 14 15
5 6 5 1 9 9 14 16 19 20 21 19 18 18 18 18 13 13 13 13 11 13 17 15 18 19 15 16 17 18 20 25 24 20 19 18 19 20 18 22 21 15 15 11
Wind_Direction
205 213 218 217 222 233 245 238 230 203 58 207 158 156 174 239 221 191 180 186 186 192 188 188 191 186 189 184 184 186 195 200 180 182 186 206 220 235 227 246 213 181 202 233
212 219 221 220 218 229 244 254 243 190 173 226 194 177 175 203 189 190 186 185 193 189 189 189 185 194 188 189 185 186 193 200 197 194 193 200 215 221 209 220 215 223 227 220
222 214 222 218 218 220 234 244 250 249 195 195 207 207 201 177 184 193 198 186 191 194 195 183 187 193 190 187 186 186 188 196 196 197 200 221 237 249 191 197 203 202 200 219
222 233 206 222 217 220 227 232 250 255 243 184 251 226 200 214 185 191 189 204 189 192 194 194 186 188 198 191 187 185 185 192 195 205 199 205 206 230 220 224 221 198 185 198
225 218 228 210 223 219 228 230 238 254 249 176 195 251 264 209 188 187 193 198 207 190 194 199 189 188 195 194 187 185 185 189 194 200 208 212 206 205 229 212 162 154 177 188
236 224 227 226 214 231 228 238 245 245 253 220 223 207 253 187 181 251 189 199 199 204 189 193 194 186 190 195 190 189 183 190 193 199 208 213 204 220 212 196 165 183 181 193
222 237 228 225 224 212 231 226 231 235 235 242 212 196 211 191 200 213 228 279 197 197 194 185 190 187 186 190 192 188 186 188 191 197 201 210 215 212 222 220 179 182 195 185
223 221 228 200 223 220 217 227 227 228 229 235 237 247 203 201 195 170 181 221 191 187 188 186 189 191 185 188 188 189 185 187 189 193 201 204 214 210 218 217 207 199 207 198
221 229 216 227 210 227 214 224 230 239 240 247 238 223 234 182 217 192 205 243 225 177 185 186 185 189 188 185 188 189 181 186 190 192 198 201 206 208 210 209 219 202 216 225
237 250 218 209 225 216 227 219 221 233 239 241 239 251 226 191 140 228 188 200 231 186 185 181 187 186 188 185 187 187 186 184 189 192 195 200 202 206 209 212 215 218 212 215
226 244 247 207 202 218 210 228 236 229 239 246 245 244 236 194 181 191 198 200 226 223 184 182 184 184 182 183 184 188 188 184 188 193 195 198 203 204 205 209 210 212 211 216
214 226 240 242 215 208 222 212 230 238 224 237 256 246 235 236 225 188 202 213 217 225 220 193 181 176 177 182 184 187 190 193 192 194 196 199 202 203 205 209 209 208 207 208
206 218 231 240 245 214 210 223 221 235 246 244 237 246 260 156 198 274 204 207 210 221 209 196 183 174 176 183 184 187 191 195 196 195 197 200 202 204 207 207 208 208 207 205
208 219 220 234 233 227 218 215 222 229 230 239 244 231 255 202 182 221 184 239 210 171 204 158 158 180 186 184 186 187 190 194 196 197 199 203 203 206 207 207 207 208 207 203
212 234 227 220 247 228 236 216 217 224 242 240 237 240 223 253 228 194 228 204 233 232 160 148 185 212 184 183 187 189 188 190 194 196 200 204 206 207 207 207 208 207 208 205
216 233 246 233 223 241 241 228 220 221 227 245 253 252 249 243 252 246 179 229 208 211 217 176 177 197 220 186 184 189 190 189 192 195 200 202 203 204 205 206 207 207 209 207
205 220 228 238 232 235 238 239 237 219 220 231 241 251 264 258 262 277 244 235 220 203 202 222 176 189 203 203 181 186 193 188 192 194 198 198 198 199 200 200 203 205 208 203
196 212 225 235 230 236 239 228 238 252 240 219 223 235 251 264 270 271 269 281 283 234 214 207 235 185 193 209 181 182 188 193 190 196 194 196 195 194 192 196 200 203 205 207
220 192 222 230 228 240 245 237 231 236 245 252 262 256 237 226 240 256 258 257 251 248 268 224 230 257 191 196 186 181 184 193 196 190 193 192 188 184 186 193 197 200 205 204
225 203 218 215 228 226 219 227 189 166 246 325 359 340 323 342 299 281 235 252 252 253 253 229 223 239 235 186 184 176 186 190 197 194 190 182 176 178 185 190 190 193 190 197
229 209 210 219 226 237 312 156 131 212 183 77 21 348 326 293 284 314 313 313 239 263 236 256 220 245 187 177 179 172 182 187 191 188 181 174 176 178 179 179 183 181 189 201
220 224 224 224 211 224 163 153 202 56 110 75 26 332 319 301 293 280 276 276 304 327 262 174 173 64 158 172 162 166 174 171 173 170 170 167 168 170 171 169 170 175 179 180
248 244 249 248 243 110 131 72 70 131 117 74 354 311 309 291 278 261 67 55 91 15 20 347 130 102 111 125 146 152 154 157 158 156 155 156 153 155 158 158 162 158 162 166
267 284 226 246 222 118 127 126 128 119 128 49 41 33 15 254 59 60 52 129 93 78 74 66 85 83 86 101 119 127 136 148 149 143 134 126 127 125 133 145 159 157 159 168
323 317 275 230 149 111 126 121 128 112 90 77 64 47 51 47 38 46 55 55 68 76 73 70 71 79 82 95 105 114 123 127 115 110 113 115 121 121 127 132 154 157 168 194
346 312 319 15 358 312 140 134 100 83 73 81 83 75 66 56 51 21 36 46 52 69 75 82 82 88 99 103 113 116 118 118 120 119 114 123 125 127 130 118 112 131 148 149